• In Belarus
  • List of Countries
  • For 7 days
  • Water Temperature
  • Satellite Maps
  • Weather Map
  • Weather Widgets
  • user-avatar
    Login

    Hourly Weather Pitsunda

    Today, 19 December, Wednesday

    Time Temperature Precipitation Wind Pressure Humidity
    00:00 +8°C° 0 mm 5 mps 764 mmHg 70%
    01:00 +8°C° 0 mm 5 mps 764 mmHg 70%
    02:00 +8°C° 0 mm 5 mps 764 mmHg 70%
    03:00 +8°C° 0 mm 5 mps 764 mmHg 70%
    04:00 +8°C° 0 mm 5 mps 764 mmHg 70%
    05:00 +8°C° 0 mm 5 mps 764 mmHg 69%
    06:00 +8°C° 0 mm 5 mps 764 mmHg 69%
    07:00 +9°C° 0 mm 5 mps 763 mmHg 68%
    08:00 +9°C° 0 mm 5 mps 763 mmHg 68%
    09:00 +9°C° 0 mm 5 mps 763 mmHg 67%
    10:00 +12°C° 0 mm 5 mps 763 mmHg 67%
    11:00 +13°C° 0 mm 5 mps 762 mmHg 67%
    12:00 +15°C° 0 mm 4 mps 762 mmHg 68%
    13:00 +15°C° 0 mm 4 mps 762 mmHg 68%
    14:00 +15°C° 0 mm 4 mps 761 mmHg 69%
    15:00 +16°C° 0 mm 3 mps 761 mmHg 69%
    16:00 +14°C° 0 mm 4 mps 761 mmHg 68%
    17:00 +13°C° 0 mm 4 mps 761 mmHg 66%
    18:00 +12°C° 0 mm 4 mps 761 mmHg 64%
    19:00 +12°C° 0 mm 4 mps 761 mmHg 62%
    20:00 +12°C° 0 mm 4 mps 761 mmHg 60%
    21:00 +12°C° 0 mm 4 mps 761 mmHg 58%
    22:00 +12°C° 0 mm 4 mps 761 mmHg 56%
    23:00 +12°C° 0 mm 4 mps 761 mmHg 54%

    Tomorrow, 20 December, Thursday

    Time Temperature Precipitation Wind Pressure Humidity
    00:00 +12°C° 0 mm 4 mps 761 mmHg 52%
    01:00 +12°C° 0 mm 4 mps 762 mmHg 52%
    02:00 +12°C° 0 mm 4 mps 762 mmHg 52%
    03:00 +12°C° 0 mm 4 mps 762 mmHg 52%
    04:00 +12°C° 0 mm 3 mps 762 mmHg 54%
    05:00 +12°C° 0 mm 3 mps 762 mmHg 56%
    06:00 +12°C° 0 mm 3 mps 762 mmHg 58%
    07:00 +12°C° 0.1 mm 3 mps 763 mmHg 60%
    08:00 +13°C° 0.1 mm 2 mps 763 mmHg 62%
    09:00 +13°C° 0.1 mm 2 mps 763 mmHg 65%
    10:00 +14°C° 0.1 mm 2 mps 763 mmHg 65%
    11:00 +14°C° 0.1 mm 2 mps 764 mmHg 65%
    12:00 +15°C° 0.1 mm 2 mps 764 mmHg 65%
    13:00 +15°C° 0.1 mm 2 mps 764 mmHg 67%
    14:00 +14°C° 0.1 mm 2 mps 764 mmHg 70%
    15:00 +14°C° 0.1 mm 2 mps 764 mmHg 72%
    16:00 +13°C° 0 mm 1 mps 765 mmHg 75%
    17:00 +12°C° 0 mm 1 mps 765 mmHg 77%
    18:00 +11°C° 0 mm 1 mps 765 mmHg 79%
    19:00 +11°C° 0 mm 1 mps 766 mmHg 79%
    20:00 +11°C° 0 mm 1 mps 766 mmHg 80%
    21:00 +10°C° 0 mm 1 mps 766 mmHg 80%
    22:00 +9°C° 0 mm 2 mps 766 mmHg 80%
    23:00 +9°C° 0 mm 2 mps 767 mmHg 79%

    Day after tomorrow, 21 December, Friday

    Time Temperature Precipitation Wind Pressure Humidity
    00:00 +9°C° 0 mm 2 mps 767 mmHg 79%
    01:00 +9°C° 0 mm 2 mps 767 mmHg 79%
    02:00 +9°C° 0 mm 2 mps 767 mmHg 79%
    03:00 +9°C° 0 mm 2 mps 768 mmHg 79%
    04:00 +9°C° 0 mm 2 mps 768 mmHg 80%
    05:00 +9°C° 0 mm 2 mps 768 mmHg 81%
    06:00 +9°C° 0 mm 2 mps 768 mmHg 82%
    07:00 +9°C° 0 mm 2 mps 768 mmHg 82%
    08:00 +10°C° 0 mm 1 mps 769 mmHg 82%
    09:00 +11°C° 0 mm 1 mps 769 mmHg 82%
    10:00 +11°C° 0.1 mm 1 mps 769 mmHg 81%
    11:00 +12°C° 0.1 mm 2 mps 769 mmHg 81%
    12:00 +13°C° 0.1 mm 2 mps 769 mmHg 80%
    13:00 +12°C° 0.2 mm 2 mps 769 mmHg 81%
    14:00 +12°C° 0.2 mm 2 mps 769 mmHg 83%
    15:00 +12°C° 0.2 mm 2 mps 769 mmHg 84%
    16:00 +12°C° 0.1 mm 2 mps 769 mmHg 86%
    17:00 +10°C° 0.1 mm 2 mps 769 mmHg 89%
    18:00 +9°C° 0.1 mm 2 mps 768 mmHg 91%
    19:00 +9°C° 0.1 mm 2 mps 768 mmHg 91%
    20:00 +9°C° 0.1 mm 2 mps 768 mmHg 91%
    21:00 +9°C° 0.1 mm 2 mps 768 mmHg 90%
    22:00 +9°C° 0.2 mm 2 mps 768 mmHg 90%
    23:00 +9°C° 0.2 mm 2 mps 768 mmHg 90%

    22 December, Saturday

    Time Temperature Precipitation Wind Pressure Humidity
    00:00 +9°C° 0.2 mm 2 mps 768 mmHg 90%
    01:00 +9°C° 0.2 mm 2 mps 767 mmHg 90%
    02:00 +8°C° 0.2 mm 2 mps 767 mmHg 90%
    03:00 +8°C° 0.2 mm 2 mps 767 mmHg 90%
    04:00 +9°C° 0.2 mm 1 mps 767 mmHg 90%
    05:00 +9°C° 0.2 mm 1 mps 766 mmHg 90%
    06:00 +9°C° 0.2 mm 1 mps 766 mmHg 90%
    07:00 +9°C° 0.6 mm 1 mps 766 mmHg 90%
    08:00 +9°C° 0.6 mm 1 mps 767 mmHg 90%
    09:00 +9°C° 0.6 mm 1 mps 767 mmHg 91%
    10:00 +9°C° 1 mm 1 mps 767 mmHg 91%
    11:00 +8°C° 1 mm 2 mps 767 mmHg 90%
    12:00 +8°C° 1 mm 2 mps 767 mmHg 90%
    13:00 +8°C° 0.6 mm 2 mps 767 mmHg 90%
    14:00 +8°C° 0.6 mm 2 mps 767 mmHg 90%
    15:00 +8°C° 0.6 mm 2 mps 767 mmHg 90%
    16:00 +8°C° 0.3 mm 2 mps 767 mmHg 90%
    17:00 +8°C° 0.3 mm 2 mps 767 mmHg 91%
    18:00 +8°C° 0.3 mm 1 mps 767 mmHg 91%
    19:00 +7°C° 0.2 mm 2 mps 767 mmHg 90%
    20:00 +7°C° 0.2 mm 2 mps 767 mmHg 90%
    21:00 +7°C° 0.2 mm 2 mps 768 mmHg 90%
    22:00 +7°C° 0.3 mm 2 mps 767 mmHg 89%
    23:00 +7°C° 0.3 mm 3 mps 767 mmHg 88%

    23 December, Sunday

    Time Temperature Precipitation Wind Pressure Humidity
    00:00 +7°C° 0.3 mm 3 mps 767 mmHg 88%
    01:00 +7°C° 0.4 mm 3 mps 767 mmHg 87%
    02:00 +7°C° 0.4 mm 3 mps 767 mmHg 87%
    03:00 +6°C° 0.4 mm 4 mps 766 mmHg 87%
    04:00 +6°C° 0.1 mm 4 mps 766 mmHg 86%
    05:00 +6°C° 0.1 mm 5 mps 766 mmHg 85%
    06:00 +6°C° 0.1 mm 5 mps 766 mmHg 84%
    07:00 +6°C° 0.2 mm 5 mps 766 mmHg 84%
    08:00 +5°C° 0.2 mm 6 mps 765 mmHg 83%
    09:00 +5°C° 0.2 mm 6 mps 765 mmHg 83%
    10:00 +7°C° 0.3 mm 6 mps 765 mmHg 82%
    11:00 +7°C° 0.3 mm 6 mps 765 mmHg 82%
    12:00 +8°C° 0.3 mm 6 mps 764 mmHg 81%
    13:00 +7°C° 0.5 mm 6 mps 764 mmHg 82%
    14:00 +7°C° 0.5 mm 6 mps 764 mmHg 82%
    15:00 +7°C° 0.5 mm 6 mps 764 mmHg 83%
    16:00 +7°C° 0.8 mm 6 mps 764 mmHg 84%
    17:00 +7°C° 0.8 mm 6 mps 764 mmHg 84%
    18:00 +7°C° 0.8 mm 6 mps 764 mmHg 84%
    19:00 +6°C° 1.1 mm 7 mps 764 mmHg 85%
    20:00 +5°C° 1.1 mm 7 mps 763 mmHg 85%
    21:00 +5°C° 1.1 mm 7 mps 763 mmHg 86%
    22:00 +5°C° 2.7 mm 6 mps 763 mmHg 87%
    23:00 +5°C° 2.7 mm 6 mps 763 mmHg 88%

    24 December, Monday

    Time Temperature Precipitation Wind Pressure Humidity
    00:00 +6°C° 2.7 mm 5 mps 763 mmHg 90%
    01:00 +6°C° 2.6 mm 5 mps 763 mmHg 90%
    02:00 +6°C° 2.6 mm 5 mps 763 mmHg 90%
    03:00 +6°C° 2.6 mm 5 mps 763 mmHg 90%
    04:00 +5°C° 1.7 mm 5 mps 763 mmHg 90%
    05:00 +5°C° 1.7 mm 5 mps 763 mmHg 91%
    06:00 +5°C° 1.7 mm 5 mps 762 mmHg 91%
    07:00 +6°C° 0.9 mm 5 mps 763 mmHg 91%
    08:00 +6°C° 0.9 mm 5 mps 763 mmHg 91%
    09:00 +6°C° 0.9 mm 5 mps 763 mmHg 91%
    10:00 +6°C° 0.7 mm 5 mps 763 mmHg 91%
    11:00 +7°C° 0.7 mm 5 mps 763 mmHg 91%
    12:00 +7°C° 0.7 mm 5 mps 763 mmHg 90%
    13:00 +7°C° 0.9 mm 5 mps 763 mmHg 90%
    14:00 +7°C° 0.9 mm 5 mps 763 mmHg 90%
    15:00 +5°C° 0.9 mm 6 mps 763 mmHg 90%
    16:00 +6°C° 0.4 mm 5 mps 764 mmHg 90%
    17:00 +6°C° 0.4 mm 4 mps 764 mmHg 89%
    18:00 +5°C° 0.4 mm 3 mps 764 mmHg 89%
    19:00 +5°C° 0.4 mm 3 mps 764 mmHg 89%
    20:00 +5°C° 0.4 mm 3 mps 764 mmHg 89%
    21:00 +5°C° 0.4 mm 4 mps 764 mmHg 88%
    22:00 +5°C° 0.9 mm 4 mps 764 mmHg 89%
    23:00 +5°C° 0.9 mm 5 mps 764 mmHg 90%
    Show more